Location: Schommer Observatory
(40.5200°N, 74.4500°W)
Time: 05:26:21
(UTC-04:00)

AO-85 - Visible Passes

Search period start: 23 April 2018 00:00
Search period end: 03 May 2018 00:00
Orbit: 501 x 784 km, 64.8° (Epoch: 19 April)

Date Brightness Start Highest point End Pass type
(mag) Time Alt. Az. Time Alt. Az. Time Alt. Az.
23 Apr ? 20:09:05 10° NNW 20:14:05 41° NE 20:19:12 10° ESE visible
23 Apr ? 21:49:48 10° NW 21:54:26 30° WSW 21:57:21 19° SSW visible
24 Apr ? 20:33:50 10° NNW 20:39:11 86° ENE 20:44:35 10° SSE visible
24 Apr ? 22:16:30 10° WNW 22:18:58 13° WSW 22:21:28 10° SW visible
25 Apr ? 20:59:00 10° NW 21:04:03 44° WSW 21:09:09 10° S visible
26 Apr ? 21:24:54 10° WNW 21:28:42 20° WSW 21:32:30 10° SSW visible
27 Apr ? 20:08:21 10° NW 20:13:38 63° WSW 20:18:58 10° SSE visible
28 Apr ? 20:33:51 10° NW 20:38:22 28° WSW 20:42:57 10° S visible
29 Apr ? 21:00:48 10° W 21:02:54 12° WSW 21:05:00 10° SW visible
